Location: Demmingen
(48.6757°N, 10.4375°E)
Time: 03:43:42
(UTC+00:00)

RESURS DK-1 - Pass Details

Date: 23 May 2024
Orbit: 541 x 547 km, 69.9° (Epoch: 13 June)

Event Time Altitude Azimuth Distance (km) Brightness Sun altitude
Rises 02:04:07 0° 328° (NNW) 2,721 6.1 -11.1°
Reaches altitude 10° 02:06:19 10° 327° (NNW) 1,825 5.2 -10.9°
Maximum altitude 02:10:22 72° 244° (WSW) 579 2.2 -10.4°
Drops below altitude 10° 02:14:24 10° 159° (SSE) 1,814 4.7 -10.0°
Sets 02:16:35 0° 157° (SSE) 2,704 5.6 -9.7°
